THORAD AGENA D DEB, 5958

Orbit data source: Space-Track

THORAD AGENA D DEB, 5958 is space debris in SSO originally from a launch on Wed, 08 Apr 1970 UTC launched from the Air Force Western Test Range (AFWTR). Debris objects in space refer to the collection of defunct objects orbiting the Earth. Examples of debris include non-operational satellites, rocket bodies, and fragments generated from explosions, collisions, or faulty payload assembly.

Loading next visibility...
Identifier
5958, 1970-025MP
Orbit
SSO
Country
Flag of USUS
Related business
Manufacturer
Unknown
Mission
Spacecraft
Bus & Motor
Unknown
Mass
Unknown
Launch date (UTC)
1970-04-08 (56 years ago)
Launch vehicle
Unknown
Launch site
Air Force Western Test Range (AFWTR)
Object type
Payload
Rocket body
Debris
Shape & HBR
Unknown shape, 0.1 m
Radar Cross Section
Small (<0.1 m²)

Expand to show TLE details & history
Last TLE update: 12 hours ago

TLE from 12 hours ago
0 THORAD AGENA D DEB
1  5958U 70025MP  26036.66831818  .00000789  00000-0  10293-2 0  9990
2  5958  99.5005 305.6249 0051842  85.3474 306.9765 13.64432847757273
Epoch: 2026-02-05T16:02Z
TLE epoch observation values (Epoch: 2026-02-05T16:02:22.690Z)
Latitude
31.41715°
Longitude
-76.62341°
Altitude
1,000.589 km
Speed
7.366 km/s
True Right ascension
19h 59m 09s
True Declination
31° 16' 10"
Sunlit
Object was in daylight at epoch
Visualization orbit readout
Latitude
Unknown
Longitude
Unknown
Altitude
Unknown
Speed
Unknown
Apparent Right ascension
Unknown
Apparent Declination
Unknown
Sunlit
N/A
Visualization observer readout
Local Sidereal Time
05:49:49
Azimuth
Unknown
Elevation
Unknown
Doppler factor
Unknown
Orbital elements
Apogee altitude
1,055.235 km
Perigee altitude
978.56 km
Semi-major axis
7,395.035 km
Eccentricity
0.00518
Inclination
99.5005°
RAAN
305.6249°
Arg. of periapsis
85.3474°
True anomaly
306.50006°
Mean anomaly
306.9765°
Eccentric anomaly
306.73847°
Mean motion
3.41297 °/min
Orbital period
105.48 mins
BSTAR
0.0010293

Documentation

Showing up to 5 results
|